Regional Weather Roundup
Issued by NWS

Home | Current Version | Previous Version | Text Only | Print | Product List | Glossary Off
Versions: 1 2 3 4 5 6 7 8 9 10 11 12 13 14 15 16 17 18 19 20 21 22 23 24 25 26 27 28 29 30 31 32 33 34 35 36 37 38 39 40 41 42 43 44 45 46 47 48 49 50

000
ASUS43 KMPX 242301
RWRMN
WEATHER ROUNDUP FOR MINNESOTA
NATIONAL WEATHER SERVICE TWIN CITIES/CHANHASSEN MN
600 PM CDT FRI APR 24 2015


NOTE: "FAIR" INDICATES FEW OR NO CLOUDS BELOW 12,000 FEET WITH NO
SIGNIFICANT WEATHER AND/OR OBSTRUCTIONS TO VISIBILITY. N/A MEANS
CURRENT SKY AND/OR WEATHER CONDITIONS ARE NOT AVAILABLE.

MNZ060>063-068>070-250000-
   Twin Cities Metro

CITY           SKY/WX    TMP DP  RH WIND       PRES   REMARKS
TWIN CITIES    LGT RAIN  46  41  82 SE14G22   29.80F
ST PAUL        LGT RAIN  46  40  79 SE14      29.82F
CRYSTAL        LGT RAIN  47  41  80 SE15G22   29.79S
BLAINE         CLOUDY    50  37  62 SE18      29.80S
LAKEVILLE      LGT RAIN  43  39  87 E13       29.80F
EDEN PRAIRIE   CLOUDY    45  40  82 SE20      29.78S
SOUTH ST PAUL  LGT RAIN  46  39  76 SE9       29.81F
LAKE ELMO      CLOUDY    48  36  61 SE10      29.83S
$$
MNZ001>005-007-008-013>017-022>024-027-028-250000-
   Northwest Minnesota

CITY           SKY/WX    TMP DP  RH WIND       PRES   REMARKS
BEMIDJI        CLOUDY    43  32  65 E15       29.81R
HALLOCK        CLOUDY    52  34  50 E12G22    29.78R
ROSEAU         CLOUDY    46  34  61 E15       29.83S
WARROAD        CLOUDY    39  34  81 E10       29.86R
THIEF RVR FALL CLOUDY    46  32  57 E15       29.78S
CROOKSTON      CLOUDY    52  37  58 E12       29.76S
FOSSTON        CLOUDY    46  34  61 SE9G18    29.78R
DETROIT LAKES  CLOUDY    45  37  76 SE16      29.77R
MOORHEAD       PTSUNNY   50  39  66 SE14G20   29.73S
PARK RAPIDS    CLOUDY    45  32  60 SE14      29.79R
MAHNOMEN       CLOUDY    47  36  66 SE16      29.75S
$$
MNZ006-009>011-018-025>026-250000-
   North Central Minnesota

CITY           SKY/WX    TMP DP  RH WIND       PRES   REMARKS
BAUDETTE       CLOUDY    42  30  62 SE13G23   29.86S
FLAG ISLAND    CLOUDY    39  27  60 SE8       29.88R
INTL FALLS     CLOUDY    41  24  51 E8        29.90S
WASKISH        CLOUDY    43  34  70 E12       29.85S
BIG FORK       CLOUDY    43  28  56 E9        29.87S
LONGVILLE      CLOUDY    43  32  65 E6        29.83R
GRAND RAPIDS   CLOUDY    41  28  60 E10G18    29.86S
CRANE LAKE     CLOUDY    43  16  33 CALM      29.94S
ORR            CLOUDY    43  16  33 CALM      29.88S
COOK           CLOUDY    43  21  42 SE8       29.90S
WALKER         CLOUDY    42  32  69 E9        29.81S
$$
MNZ012-019>021-037-250000-
   Northeast Minnesota

CITY           SKY/WX    TMP DP  RH WIND       PRES   REMARKS
DULUTH         CLOUDY    38  26  62 E15       29.90F
ELY            CLOUDY    39  14  35 SE10      29.94S
HIBBING        CLOUDY    42  27  55 SE14      29.89S
EVELETH        CLOUDY    41  27  56 SE12      29.91S
DULUTH HARBOR  CLOUDY    37  32  81 NE21      29.93F
TWO HARBORS    CLOUDY    39  25  56 NE12G17   29.92F
SILVER BAY     CLOUDY    36  25  64 NE9       29.95F
GRAND MARAIS     N/A     36  25  64 NE9       30.00F
G MARAIS ARPRT CLOUDY    37   9  30 E6        29.96F
$$
MNZ029>031-032-039>041-046>048-054>057-064-250000-
   West Central Minnesota

CITY           SKY/WX    TMP DP  RH WIND       PRES   REMARKS
FERGUS FALLS   CLOUDY    46  37  71 SE16G26   29.74R
WHEATON        PTSUNNY   48  43  81 E21       29.70R
MORRIS         PTSUNNY   52  43  71 SE20G26   29.69S
ALEXANDRIA     LGT RAIN  43  41  93 SE15      29.74S FOG
ELBOW LAKE     CLOUDY    46  41  82 SE17      29.72R
WADENA         CLOUDY    43  36  75 E10G17    29.77R
GLENWOOD       CLOUDY    45  43  93 E15G22    29.74S
APPLETON       MOSUNNY   54  43  66 SE17G26   29.68S
BENSON         CLOUDY    48  41  76 S13G24    29.71R
ORTONVILLE     MOSUNNY   54  43  66 E20G26    29.65S
MADISON        PTSUNNY   55  43  62 SE22      29.66S
WILLMAR        PTSUNNY   46  45  93 SE16G26   29.73S
$$
MNZ033>034-036-042>043-049>051-058-059-250000-
   Central Minnesota

CITY           SKY/WX    TMP DP  RH WIND       PRES   REMARKS
ST CLOUD       CLOUDY    46  41  82 SE8       29.78S
SAUK CENTRE    CLOUDY    44  42  93 E12G20    29.76S FOG
PAYNESVILLE    CLOUDY    42  39  89 E14       29.75S
AITKIN         CLOUDY    45  34  65 E8        29.82S
PINE RIVER     CLOUDY    43  34  70 E10       29.85R
BRAINERD       CLOUDY    45  32  60 E9        29.81R
STAPLES        CLOUDY    45  34  65 E6        29.78S
LONG PRAIRIE   CLOUDY    41  37  87 E9        29.77S
LITTLE FALLS   CLOUDY    45  36  70 E8        29.79R
LITCHFIELD     CLOUDY    46  45  93 SE14      29.75S
BUFFALO        LGT RAIN  46  40  79 E13G24    29.79S
MAPLE LAKE     CLOUDY    46  42  85 E12G18    29.78S
$$
MNZ037-044-045-052-053-250000-
   East Central Minnesota

CITY           SKY/WX    TMP DP  RH WIND       PRES   REMARKS
PRINCETON      CLOUDY    48  41  76 E12       29.81R
MORA           CLOUDY    46  30  53 E6        29.83S
CAMBRIDGE      CLOUDY    50  37  62 E13G21    29.80S
RUSH CITY      CLOUDY    49  35  59 SE12G20   29.83S
MOOSE LAKE     CLOUDY    41  34  75 CALM      29.85S
HINCKLEY       CLOUDY    46  32  57 E12       29.84R
CLOQUET        CLOUDY    37  28  70 E14       29.88S
MCGREGOR       CLOUDY    41  34  75 E13       29.86S
$$
MNZ071>073-080-081-089-090-097-098-250000-
   Southwest Minnesota

CITY           SKY/WX    TMP DP  RH WIND       PRES   REMARKS
MONTEVIDEO     CLOUDY    50  45  81 SE16      29.70S
GRANITE FALLS  CLOUDY    49  42  76 E14G25    29.70R
CANBY          PTSUNNY   54  44  67 E18G24    29.65S
MARSHALL       CLOUDY    50  39  66 SE16      29.66R
REDWOOD FALLS  LGT RAIN  47  43  86 SE13      29.71R
OLIVIA         CLOUDY    45  39  81 SE14G22   29.71S
WORTHINGTON    PTSUNNY   54  45  71 SE20      29.63S
JACKSON        CLOUDY    52  45  76 SE16G23   29.68S
TRACY          CLOUDY    51  46  80 SE14      29.66S
SLAYTON        CLOUDY    52  47  82 E20       29.64S
$$
MNZ065>067-074>077-082>085-091>093-250000-
   South Central Minnesota

CITY           SKY/WX    TMP DP  RH WIND       PRES   REMARKS
MANKATO        CLOUDY    45  37  76 SE17      29.76S
NEW ULM        DRIZZLE   45  41  87 SE15      29.73S
ST JAMES       CLOUDY    48  45  87 E15       29.73F
FAIRMONT       CLOUDY    48  12  23 SE21G28   29.70F
GLENCOE        CLOUDY    46  43  89 E17G25    29.75F
FARIBAULT      LGT RAIN  45  41  87 E14       29.79F
OWATONNA       HVY RAIN  43  39  87 E18       29.78S
ALBERT LEA     CLOUDY    45  43  93 SE20G26   29.75F
$$
MNZ078>079-086>088-094>096-250000-
   Southeast Minnesota

CITY           SKY/WX    TMP DP  RH WIND       PRES   REMARKS
ROCHESTER      LGT RAIN  42  39  89 SE9       29.83R
RED WING       LGT RAIN  45  39  81 SE14      29.83S
STANTON        RAIN      45  39  78 SE13G20   29.79F
DODGE CENTER   RAIN      43  41  93 SE17      29.79F
AUSTIN         LGT RAIN  43  39  87 SE14G25   29.78S
PRESTON        CLOUDY    42  39  87 SE16G22   29.80F
$$
ABBREVIATIONS USED IN REMARKS
   TC - TEMPERATURES IN CELSIUS
  WCI - WIND CHILL INDEX
   HX - HEAT INDEX
  VSB - VISIBILITY
$$



USA.gov is the U.S. government's official web portal to all federal, state and local government web resources and services.